{"data":{"norad_id":65803,"epoch":"2026-05-25T02:23:21.117408Z","epoch_age_seconds":59761,"freshness":"FRESH","line1":"1 65803U 25218N   26145.09954997  .00006226  00000+0  43509-3 0  9999","line2":"2 65803  97.4525   7.8369 0001942  81.7514 278.3933 15.05657685 36463","mean_motion":15.05657685,"eccentricity":0.0001942,"inclination_deg":97.4525,"raan_deg":7.8369,"arg_perigee_deg":81.7514,"mean_anomaly_deg":278.3933,"bstar":0.00043509,"rev_number":3646,"period_min":95.639268762474,"perigee_km":548.14223647012,"apogee_km":550.83292585744,"semimajor_km":6927.6245811638,"source":"CELESTRAK","updated_at":"2026-05-25T13:38:20.938512Z"}}